Date String (YYYY-MM-DD hh:mm:ss) UTC,Instrument flags,Ambient pressure (hPa),Sample flow (lpm),Bypass flow (lpm),Sample temperature (°C),Ambient temperature (°C),ASC tube jacket temperature (°C),LED temperature (°C),Box temperature (°C),Sample RH (%),Span deviation,Mass concentration (μg/m³),Mass concentration (μg/m³),Mass concentration (μg/m³)
DateTimeUTC,F1_M11,P_M11,Q1_M11,Q2_M11,T1_M11,T2_M11,T3_M11,T4_M11,T5_M11,U1_M11,ZSPAN_M11,X0_M11,X2_M11,X1_M11
2022-02-11 01:00:00,,0820.3,5.02,0.00,26.5,25.8,00.0,35.5,28.2,09.7,0000.0,0004.77,0000.78,0000.41
2022-02-11 01:01:00,,0820.2,5.00,0.00,26.5,25.7,00.0,35.5,28.2,09.8,0000.0,0004.67,0000.77,0000.42
2022-02-11 01:02:00,,0820.2,4.99,0.00,26.4,25.7,00.0,35.5,28.2,09.9,0000.0,0003.97,0000.75,0000.43
2022-02-11 01:03:00,,0820.2,5.00,0.00,26.4,25.7,00.0,35.5,28.2,09.9,0000.0,0002.95,0000.76,0000.44
2022-02-11 01:04:00,,0820.0,5.01,0.00,26.5,25.7,00.0,35.5,28.3,09.9,0000.0,0001.99,0000.76,0000.44
2022-02-11 01:05:00,,0820.1,4.99,0.00,26.5,25.8,00.0,35.5,28.3,10.0,0000.0,0001.94,0000.76,0000.45
2022-02-11 01:06:00,,0820.3,4.99,0.00,26.5,25.8,00.0,35.5,28.2,10.0,0000.0,0002.00,0000.80,0000.46
2022-02-11 01:07:00,,0820.2,5.02,0.00,26.4,25.7,00.0,35.5,28.2,09.9,0000.0,0002.02,0000.80,0000.46
2022-02-11 01:08:00,,0820.2,4.99,0.00,26.4,25.7,00.0,35.5,28.1,10.0,0000.0,0002.06,0000.79,0000.46
2022-02-11 01:09:00,,0820.1,4.99,0.00,26.4,25.7,00.0,35.5,28.2,09.9,0000.0,0001.96,0000.76,0000.45
2022-02-11 01:10:00,,0820.0,5.00,0.00,26.4,25.7,00.0,35.5,28.2,09.9,0000.0,0001.90,0000.76,0000.45
2022-02-11 01:11:00,,0820.0,4.99,0.00,26.4,25.7,00.0,35.5,28.2,09.8,0000.0,0001.76,0000.78,0000.45
2022-02-11 01:12:00,,0819.9,5.00,0.00,26.4,25.7,00.0,35.5,28.2,09.9,0000.0,0001.74,0000.78,0000.45
2022-02-11 01:13:00,,0819.9,5.00,0.00,26.4,25.7,00.0,35.5,28.2,09.8,0000.0,0001.71,0000.76,0000.45
2022-02-11 01:14:00,,0819.8,4.99,0.00,26.4,25.7,00.0,35.5,28.1,09.9,0000.0,0001.97,0000.75,0000.45
2022-02-11 01:15:00,,0819.8,5.00,0.00,26.4,25.6,00.0,35.4,28.1,09.9,0000.0,0001.98,0000.77,0000.44
2022-02-11 01:16:00,,0819.6,5.02,0.00,26.3,25.6,00.0,35.4,28.0,10.1,0000.0,0002.81,0000.79,0000.44
2022-02-11 01:17:00,,0819.7,4.99,0.00,26.3,25.5,00.0,35.4,28.0,09.9,0000.0,0003.59,0000.76,0000.43
2022-02-11 01:18:00,,0819.8,5.00,0.00,26.3,25.5,00.0,35.4,28.0,09.9,0000.0,0003.50,0000.73,0000.43
2022-02-11 01:19:00,,0819.8,5.00,0.00,26.3,25.5,00.0,35.4,28.1,10.0,0000.0,0003.35,0000.71,0000.43
2022-02-11 01:20:00,,0819.7,5.01,0.00,26.3,25.6,00.0,35.4,28.1,09.9,0000.0,0003.58,0000.69,0000.43
2022-02-11 01:21:00,,0819.7,4.99,0.00,26.3,25.6,00.0,35.4,28.2,09.7,0000.0,0004.64,0000.68,0000.43
2022-02-11 01:22:00,,0819.8,4.98,0.00,26.3,25.6,00.0,35.4,28.1,09.6,0000.0,0005.34,0000.67,0000.42
2022-02-11 01:23:00,,0819.7,5.00,0.00,26.4,25.7,00.0,35.4,28.2,09.7,0000.0,0005.98,0000.69,0000.42
2022-02-11 01:24:00,,0819.6,5.00,0.00,26.4,25.7,00.0,35.4,28.2,09.7,0000.0,0006.04,0000.71,0000.42
2022-02-11 01:25:00,,0819.5,5.00,0.00,26.4,25.6,00.0,35.4,28.2,09.6,0000.0,0005.76,0000.72,0000.43
2022-02-11 01:26:00,,0819.5,5.02,0.00,26.3,25.6,00.0,35.4,28.1,09.6,0000.0,0005.71,0000.72,0000.43
2022-02-11 01:27:00,,0819.5,4.99,0.00,26.3,25.6,00.0,35.4,28.1,09.7,0000.0,0005.21,0000.72,0000.44
2022-02-11 01:28:00,,0819.6,4.99,0.00,26.3,25.6,00.0,35.4,28.1,09.9,0000.0,0004.72,0000.70,0000.43
2022-02-11 01:29:00,,0819.6,5.01,0.00,26.3,25.6,00.0,35.4,28.1,09.8,0000.0,0004.75,0000.71,0000.43
2022-02-11 01:30:00,,0819.5,5.01,0.00,26.3,25.5,00.0,35.4,28.1,09.7,0000.0,0004.80,0000.73,0000.44
2022-02-11 01:31:00,,0819.4,4.99,0.00,26.3,25.5,00.0,35.4,28.0,09.6,0000.0,0004.54,0000.74,0000.45
2022-02-11 01:32:00,,0819.5,5.00,0.00,26.3,25.5,00.0,35.4,28.0,09.7,0000.0,0003.55,0000.75,0000.45
2022-02-11 01:33:00,,0819.6,5.01,0.00,26.3,25.5,00.0,35.3,28.0,09.7,0000.0,0004.32,0000.70,0000.45
2022-02-11 01:34:00,,0819.7,5.01,0.00,26.3,25.5,00.0,35.3,28.0,09.7,0000.0,0003.87,0000.68,0000.46
2022-02-11 01:35:00,,0819.6,4.99,0.00,26.3,25.6,00.0,35.3,28.1,09.7,0000.0,0004.90,0000.67,0000.45
2022-02-11 01:36:00,,0819.7,4.99,0.00,26.3,25.6,00.0,35.3,28.1,09.8,0000.0,0005.16,0000.65,0000.45
2022-02-11 01:37:00,,0819.8,5.02,0.00,26.3,25.6,00.0,35.3,28.1,09.7,0000.0,0006.59,0000.62,0000.44
2022-02-11 01:38:00,,0819.9,4.99,0.00,26.3,25.6,00.0,35.3,28.1,09.8,0000.0,0006.28,0000.60,0000.44
2022-02-11 01:39:00,,0819.8,5.00,0.00,26.3,25.6,00.0,35.3,28.1,09.7,0000.0,0006.01,0000.62,0000.44
2022-02-11 01:40:00,,0819.6,5.00,0.00,26.3,25.6,00.0,35.3,28.1,09.6,0000.0,0006.57,0000.67,0000.44
2022-02-11 01:41:00,,0819.7,5.01,0.00,26.3,25.6,00.0,35.3,28.1,09.9,0000.0,0007.46,0000.66,0000.42
2022-02-11 01:42:00,,0819.8,4.99,0.00,26.3,25.6,00.0,35.3,28.1,09.7,0000.0,0007.50,0000.68,0000.41
2022-02-11 01:43:00,,0819.7,5.02,0.00,26.3,25.6,00.0,35.3,28.1,09.7,0000.0,0007.54,0000.71,0000.41
2022-02-11 01:44:00,,0819.6,4.98,0.00,26.3,25.6,00.0,35.3,28.1,09.7,0000.0,0006.97,0000.74,0000.42
2022-02-11 01:45:00,,0819.7,5.01,0.00,26.3,25.6,00.0,35.3,28.1,09.7,0000.0,0007.20,0000.77,0000.42
2022-02-11 01:46:00,,0819.6,5.00,0.00,26.3,25.6,00.0,35.3,28.1,09.6,0000.0,0006.77,0000.80,0000.42
2022-02-11 01:47:00,,0819.7,4.98,0.00,26.3,25.6,00.0,35.3,28.1,09.7,0000.0,0007.54,0000.85,0000.42
2022-02-11 01:48:00,,0819.6,5.01,0.00,26.3,25.6,00.0,35.3,28.1,09.7,0000.0,0006.85,0000.93,0000.43
2022-02-11 01:49:00,,0819.7,5.01,0.00,26.3,25.6,00.0,35.3,28.1,09.8,0000.0,0007.40,0000.97,0000.44
2022-02-11 01:50:00,,0819.6,5.01,0.00,26.3,25.5,00.0,35.3,28.1,09.8,0000.0,0007.85,0000.99,0000.44
2022-02-11 01:51:00,,0819.8,4.98,0.00,26.3,25.5,00.0,35.3,28.0,09.9,0000.0,0008.05,0000.97,0000.45
2022-02-11 01:52:00,,0819.7,5.01,0.00,26.3,25.5,00.0,35.3,28.0,10.0,0000.0,0007.47,0001.00,0000.46
2022-02-11 01:53:00,,0819.7,4.99,0.00,26.3,25.5,00.0,35.3,28.0,10.1,0000.0,0007.48,0001.01,0000.46
2022-02-11 01:54:00,,0819.6,5.00,0.00,26.3,25.5,00.0,35.3,28.1,10.1,0000.0,0007.43,0000.95,0000.46
2022-02-11 01:55:00,,0819.5,5.01,0.00,26.3,25.5,00.0,35.3,28.0,10.0,0000.0,0006.89,0000.95,0000.46
2022-02-11 01:56:00,,0819.4,4.99,0.00,26.3,25.5,00.0,35.3,28.0,09.9,0000.0,0006.43,0000.95,0000.46
2022-02-11 01:57:00,,0819.5,5.00,0.00,26.3,25.5,00.0,35.3,28.0,09.9,0000.0,0006.37,0000.93,0000.46
2022-02-11 01:58:00,,0819.4,4.99,0.00,26.3,25.5,00.0,35.3,28.1,09.9,0000.0,0006.94,0000.87,0000.45
2022-02-11 01:59:00,,0819.4,5.00,0.00,26.3,25.5,00.0,35.3,28.1,10.0,0000.0,0006.11,0000.82,0000.45
